| time (UTC) | temp F | wind direction | speed knots | gust knots | rain 1hr in | rain 24hr in | rain mn in | humidity % | barometer mb |
| 20260507030019 | 45 | 247 | 0.0 | 0.0 | 0.00 | 0.30 | 0.30 | 94 | 1009.1 |
| 20260507024521 | 46 | 250 | 0.0 | 0.0 | 0.00 | 0.30 | 0.30 | 94 | 1009.4 |
| 20260507023014 | 46 | 250 | 0.0 | 0.0 | 0.00 | 0.30 | 0.30 | 93 | 1009.5 |
| 20260507021513 | 47 | 250 | 0.0 | 0.0 | 0.00 | 0.30 | 0.30 | 93 | 1009.6 |
| 20260507020012 | 47 | 250 | 0.0 | 0.0 | 0.00 | 0.30 | 0.30 | 93 | 1009.5 |
| 20260507014511 | 47 | 250 | 0.0 | 0.0 | 0.00 | 0.30 | 0.30 | 93 | 1009.8 |
| 20260507013010 | 47 | 249 | 0.0 | 0.0 | 0.00 | 0.30 | 0.30 | 93 | 1009.9 |
| 20260507011523 | 47 | 261 | 0.0 | 0.0 | 0.00 | 0.30 | 0.30 | 94 | 1009.8 |
| 20260507010006 | 48 | 263 | 0.0 | 0.0 | 0.00 | 0.30 | 0.30 | 94 | 1009.5 |
| 20260507004504 | 48 | 263 | 0.0 | 0.0 | 0.00 | 0.30 | 0.30 | 93 | 1009.4 |
| 20260507003003 | 48 | 263 | 0.0 | 0.0 | 0.00 | 0.30 | 0.30 | 93 | 1009.0 |
| 20260507001500 | 48 | 263 | 0.0 | 0.0 | 0.00 | 0.30 | 0.30 | 92 | 1008.7 |
| 20260507000059 | 48 | 273 | 0.0 | 0.0 | 0.00 | 0.30 | 0.30 | 92 | 1008.5 |
| 20260506234606 | 48 | 257 | 0.0 | 0.0 | 0.00 | 0.30 | 0.30 | 92 | 1008.5 |
| 20260506233059 | 48 | 342 | 0.0 | 0.0 | 0.00 | 0.30 | 0.30 | 92 | 1008.3 |
| 20260506231557 | 48 | 222 | 0.0 | 0.0 | 0.00 | 0.30 | 0.30 | 91 | 1008.3 |
| 20260506224600 | 48 | 122 | 0.0 | 0.0 | 0.00 | 0.30 | 0.30 | 91 | 1008.2 |
| 20260506223054 | 48 | 247 | 0.0 | 0.0 | 0.00 | 0.30 | 0.30 | 92 | 1008.0 |
| 20260506221551 | 48 | 214 | 0.0 | 0.0 | 0.00 | 0.30 | 0.30 | 94 | 1007.8 |
| 20260506220053 | 48 | 17 | 0.0 | 0.0 | 0.01 | 0.30 | 0.30 | 93 | 1007.4 |
| 20260506214549 | 49 | 113 | 0.0 | 0.0 | 0.01 | 0.30 | 0.30 | 94 | 1007.3 |
| 20260506213046 | 49 | 299 | 0.0 | 0.0 | 0.02 | 0.30 | 0.30 | 93 | 1007.1 |
| 20260506211543 | 49 | 253 | 0.0 | 0.0 | 0.02 | 0.30 | 0.30 | 94 | 1006.8 |
| 20260506210041 | 50 | 277 | 0.0 | 0.0 | 0.03 | 0.28 | 0.28 | 94 | 1006.3 |
| 20260506204542 | 50 | 249 | 0.0 | 0.0 | 0.04 | 0.28 | 0.28 | 93 | 1006.2 |
| 20260506203040 | 50 | 119 | 0.0 | 0.0 | 0.04 | 0.28 | 0.28 | 93 | 1005.9 |
| 20260506201538 | 50 | 168 | 0.0 | 0.0 | 0.04 | 0.28 | 0.28 | 92 | 1005.6 |
| 20260506200038 | 51 | 301 | 0.0 | 0.0 | 0.02 | 0.26 | 0.26 | 92 | 1005.3 |
| 20260506194528 | 53 | 246 | 0.0 | 0.0 | 0.01 | 0.25 | 0.25 | 90 | 1004.7 |
| 20260506193026 | 60 | 286 | 0.0 | 0.0 | 0.00 | 0.24 | 0.24 | 83 | 1004.0 |
| 20260506191527 | 62 | 341 | 0.0 | 0.0 | 0.00 | 0.24 | 0.24 | 89 | 1003.6 |
| 20260506190024 | 61 | 94 | 0.0 | 0.0 | 0.00 | 0.24 | 0.24 | 90 | 1003.7 |
| 20260506184526 | 61 | 140 | 0.0 | 0.0 | 0.00 | 0.24 | 0.24 | 90 | 1003.7 |
| 20260506183023 | 61 | 142 | 0.0 | 0.0 | 0.00 | 0.24 | 0.24 | 89 | 1003.7 |
| 20260506181522 | 61 | 126 | 0.0 | 0.0 | 0.00 | 0.24 | 0.24 | 91 | 1003.7 |
| 20260506180026 | 60 | 143 | 0.0 | 0.0 | 0.00 | 0.24 | 0.24 | 91 | 1003.8 |
| 20260506174520 | 60 | 144 | 0.0 | 0.0 | 0.00 | 0.24 | 0.24 | 93 | 1003.6 |
| 20260506173020 | 60 | 124 | 0.0 | 0.0 | 0.00 | 0.24 | 0.24 | 95 | 1003.6 |
| 20260506171517 | 60 | 143 | 0.0 | 0.0 | 0.00 | 0.24 | 0.24 | 95 | 1003.7 |
| 20260506170015 | 59 | 141 | 0.0 | 0.0 | 0.00 | 0.24 | 0.24 | 95 | 1003.9 |
| 20260506164515 | 59 | 128 | 0.0 | 0.0 | 0.00 | 0.24 | 0.24 | 93 | 1003.7 |
| 20260506163021 | 59 | 122 | 0.0 | 0.0 | 0.00 | 0.24 | 0.24 | 93 | 1004.1 |
| 20260506161515 | 59 | 243 | 0.0 | 0.0 | 0.02 | 0.24 | 0.24 | 94 | 1004.2 |
| 20260506160012 | 59 | 134 | 0.0 | 0.0 | 0.04 | 0.24 | 0.24 | 93 | 1004.2 |
| 20260506154512 | 59 | 129 | 0.0 | 0.0 | 0.05 | 0.24 | 0.24 | 94 | 1004.0 |
| 20260506153011 | 58 | 117 | 0.0 | 0.0 | 0.06 | 0.24 | 0.24 | 95 | 1003.8 |
| 20260506151511 | 58 | 130 | 0.0 | 0.0 | 0.04 | 0.22 | 0.22 | 94 | 1004.0 |
| 20260506150010 | 58 | 128 | 0.0 | 0.0 | 0.02 | 0.20 | 0.20 | 93 | 1004.1 |
| 20260506144510 | 58 | 319 | 0.0 | 0.0 | 0.02 | 0.19 | 0.19 | 95 | 1004.1 |
| 20260506143017 | 58 | 103 | 0.0 | 0.0 | 0.03 | 0.18 | 0.18 | 94 | 1003.7 |
| 20260506141509 | 58 | 151 | 0.0 | 0.0 | 0.04 | 0.18 | 0.18 | 96 | 1004.0 |
| 20260506140008 | 57 | 129 | 0.0 | 0.0 | 0.04 | 0.17 | 0.17 | 96 | 1003.6 |
| 20260506134506 | 56 | 128 | 0.0 | 0.0 | 0.06 | 0.17 | 0.17 | 96 | 1003.5 |
| 20260506133006 | 56 | 123 | 0.0 | 0.0 | 0.06 | 0.15 | 0.15 | 97 | 1004.2 |
| 20260506131506 | 56 | 114 | 0.0 | 0.0 | 0.06 | 0.14 | 0.14 | 97 | 1004.5 |
| 20260506130004 | 55 | 114 | 0.0 | 0.0 | 0.06 | 0.13 | 0.13 | 97 | 1005.0 |
| 20260506124502 | 55 | 114 | 0.0 | 0.0 | 0.05 | 0.11 | 0.11 | 96 | 1004.9 |
| 20260506123002 | 55 | 114 | 0.0 | 0.0 | 0.04 | 0.09 | 0.09 | 96 | 1004.9 |
| 20260506121501 | 55 | 114 | 0.0 | 0.0 | 0.04 | 0.08 | 0.08 | 96 | 1004.6 |
| 20260506120109 | 55 | 97 | 0.0 | 0.0 | 0.05 | 0.07 | 0.07 | 96 | 1004.6 |
| 20260506114559 | 55 | 97 | 0.0 | 0.0 | 0.05 | 0.06 | 0.06 | 96 | 1004.8 |
| 20260506114500 | 55 | 97 | 0.0 | 0.0 | 0.05 | 0.06 | 0.06 | 96 | 1004.9 |
| 20260506113059 | 55 | 97 | 0.0 | 0.0 | 0.05 | 0.05 | 0.05 | 95 | 1004.7 |
| 20260506111557 | 55 | 97 | 0.0 | 0.0 | 0.04 | 0.04 | 0.04 | 94 | 1004.8 |
| 20260506104558 | 55 | 97 | 0.0 | 0.0 | 0.01 | 0.01 | 0.01 | 92 | 1004.7 |
| 20260506103058 | 55 | 97 | 0.0 | 0.0 | 0.00 | 0.00 | 0.00 | 90 | 1004.7 |
| 20260506101603 | 56 | 97 | 0.0 | 0.0 | 0.00 | 0.00 | 0.00 | 89 | 1004.3 |
| 20260506100114 | 56 | 97 | 0.0 | 0.0 | 0.00 | 0.00 | 0.00 | 88 | 1004.4 |
| 20260506094552 | 57 | 97 | 0.0 | 0.0 | 0.00 | 0.00 | 0.00 | 85 | 1004.1 |
| 20260506093052 | 57 | 97 | 0.0 | 0.0 | 0.00 | 0.00 | 0.00 | 83 | 1004.1 |
| 20260506091551 | 58 | 97 | 0.0 | 0.0 | 0.00 | 0.00 | 0.00 | 80 | 1004.1 |
| 20260506090049 | 59 | 97 | 0.0 | 0.0 | 0.00 | 0.00 | 0.00 | 75 | 1004.0 |
| 20260506084611 | 59 | 97 | 0.0 | 0.0 | 0.00 | 0.00 | 0.00 | 76 | 1004.1 |
| 20260506083046 | 58 | 97 | 0.0 | 0.0 | 0.00 | 0.00 | 0.00 | 78 | 1004.3 |
| 20260506081552 | 57 | 139 | 0.0 | 0.0 | 0.00 | 0.00 | 0.00 | 84 | 1004.4 |
| 20260506073047 | 56 | 128 | 0.0 | 0.0 | 0.00 | 0.00 | 0.00 | 86 | 1004.2 |
| 20260506071544 | 56 | 128 | 0.0 | 0.0 | 0.00 | 0.00 | 0.00 | 86 | 1004.2 |
| 20260506061537 | 55 | 128 | 0.0 | 0.0 | 0.00 | 0.00 | 0.00 | 86 | 1004.8 |
| 20260506044549 | 58 | 128 | 0.0 | 0.0 | 0.00 | 0.00 | 0.00 | 80 | 1005.6 |
| 20260506043021 | 58 | 128 | 0.0 | 0.0 | 0.00 | 0.00 | 0.00 | 81 | 1005.4 |
| 20260506041518 | 58 | 128 | 0.0 | 0.0 | 0.00 | 0.00 | 0.00 | 80 | 1005.5 |
| 20260506040015 | 58 | 128 | 0.0 | 0.0 | 0.00 | 0.00 | 0.00 | 79 | 1005.5 |
| 20260506034537 | 59 | 128 | 0.0 | 0.0 | 0.00 | 0.00 | 0.00 | 78 | 1005.6 |
| 20260506033013 | 59 | 128 | 0.0 | 0.0 | 0.00 | 0.00 | 0.00 | 77 | 1005.6 |
| 20260506031515 | 60 | 128 | 0.0 | 0.0 | 0.00 | 0.00 | 0.00 | 75 | 1005.6 |